SCP
0 1 1 0 0 0 0 0 0 0 0 -0 -0 -0 0 0 -0 0 0 0 0 0 0 0 0 0 0 -0 -0 -0 -0 -0 -0 0 -0 -0 0 0 0 0 0 0 -0
0 1 0 0 0 0 0 0 0 0 0 0 0 -0 -0 -0 0 0 0 0 0 0 -0 -0 -0 0 0 0 -0 0 0 0 -0 0 0 0 0 0 0 0 0 0 -0
0 0 1 0 0 0 0 0 0 0 0 0 0 0 0 -0 0 0 -0 0 -0 -0 -0 -0 -0 -0 0 0 0 0 0 0 0 0 0 0 -0 -0 0 0 0 0 0
0 0 0 0 1 0 1 0 0 0 0 0 0 0 0 0 0 0 0 0 0 -0 -0 -0 -0 0 0 0 0 0 0 0 0 0 0 0 0 0 -0 -0 -0 -0 -0
0 0 0 0 0 0 1 1 0 0 0 0 0 0 0 0 0 0 0 0 0 0 -0 0 0 -0 0 0 0 0 0 0 0 0 0 0 0 0 0 -0 -0 -0 -0
0 0 0 0 0 0 0 0 0 0 0 1 0 0 0 0 0 0 0 0 0 0 0 0 0 0 0 0 0 0 0 0 0 0 0 0 0 0 0 -0 -0 -0 -0
0 0 0 0 0 0 0 0 0 0 0 0 0 0 0 0 0 0 0 0 0 0 0 0 0 0 0 0 0 0 0 0 0 0 0 0 0 0 0 -0 0 0 0
1 0 0 1 0 0 0 0 0 0 0 1 0 0 1 0 0 0 0 0 1 0 1 0 0 0 0 0 0 0 0 0 0 0 0 0 0 0 0 0 0 0 0
0 0 0 1 1 0 0 1 0 0 0 0 0 0 0 0 0 0 0 0 0 1 1 1 0 0 1 0 0 0 0 0 0 0 0 0 0 0 0 0 0 0 0
0 0 0 0 0 0 0 1 1 1 0 0 0 0 0 0 0 0 0 0 0 0 0 1 0 0 1 1 1 0 0 0 0 0 0 0 0 0 0 0 0 0 0
0 0 0 0 0 0 0 1 1 1 1 1 0 0 0 0 0 0 0 1 0 0 0 0 0 0 0 0 0 1 0 1 0 0 0 0 1 1 1 0 0 0 0
0 0 0 0 0 0 0 0 1 1 1 1 1 1 0 1 0 0 0 0 0 1 1 0 0 0 0 0 0 0 0 0 0 0 0 0 0 0 1 0 0 1 0
0 0 0 0 0 0 0 0 1 1 1 1 1 1 1 1 1 0 0 0 0 0 1 1 1 0 0 0 0 0 0 0 0 1 1 0 0 0 1 1 0 1 1
0 0 0 0 0 0 0 0 0 1 1 1 1 1 1 1 1 1 0 0 0 0 0 0 0 0 0 0 0 0 0 1 1 1 1 1 1 1 1 1 1 1 1
0 0 0 0 0 0 0 0 0 0 0 1 1 1 1 1 1 2 2 1 1 0 0 1 1 1 1 1 1 1 1 1 1 1 1 1 1 1 1 1 1 1 1
0 0 0 -0 0 0 0 0 0 0 0 0 0 0 1 0 1 1 1 1 0 0 0 1 1 1 1 1 1 1 1 1 1 1 1 1 1 1 1 1 1 1 1
0 0 0 0 0 0 0 0 0 0 -0 0 0 0 0 0 0 0 0 0 0 0 1 1 2 1 1 1 1 1 1 1 1 1 1 1 1 1 2 2 2 1 2
-0 -0 0 0 0 0 0 0 0 0 0 0 0 0 0 0 0 0 0 0 0 0 1 2 2 2 2 2 1 1 1 1 2 2 1 2 2 2 2 2 2 2 2
0 -0 -0 -0 0 -0 0 0 0 0 0 0 0 0 0 0 0 0 0 0 1 1 0 1 2 2 2 2 2 2 2 2 2 2 2 2 2 2 2 2 2 1 1
0 0 0 0 0 0 -0 0 0 0 -0 -0 0 0 0 0 0 0 0 0 1 2 3 1 1 2 2 2 3 2 2 2 2 2 2 3 3 3 2 3 3 2 2
0 0 0 0 -0 0 0 -0 0 -0 -0 -0 -0 -0 0 0 0 0 0 0 0 0 0 0 0 0 0 0 0 0 0 0 0 0 0 0 0 1 1 1 1 2 2
0 0 0 0 -0 -0 0 0 -0 -0 -0 -0 -0 -0 0 0 0 0 0 0 0 0 0 0 0 0 0 0 0 0 0 0 0 0 0 0 0 0 0 0 0 0 1
0 0 0 0 0 -0 0 0 0 -0 -0 0 -0 0 0 0 0 0 0 0 0 0 0 0 0 0 0 0 0 0 0 0 0 0 0 0 0 0 0 0 0 0 0
0 0 0 0 0 0 0 0 0 0 -0 0 0 0 0 0 0 0 0 0 0 0 0 0 0 0 0 0 0 0 0 0 0 0 0 0 0 0 0 0 0 0 0
0 0 0 0 0 0 0 0 0 0 0 0 0 0 0 0 0 0 0 0 0 0 0 0 0 0 0 0 0 0 0 0 0 0 0 0 0 0 0 0 0 0 0
0 0 0 0 0 0 0 0 0 0 0 0 0 0 0 0 0 0 0 0 0 0 0 0 0 0 0 0 0 0 0 0 0 0 0 0 0 0 0 0 0 0 0
Wind_Speed_500mb
81 79 78 73 67 57 52 52 58 53 48 44 39 33 30 26 24 23 19 21 24 22 26 29 31 30 29 28 27 26 26 25 23 24 33 32 32 33 34 37 40 45 41
75 73 80 80 75 69 57 53 54 60 53 51 45 40 36 35 31 29 25 20 18 20 22 27 28 33 33 32 32 34 33 34 33 36 33 36 39 37 39 42 40 41 44
76 80 75 80 83 78 69 59 57 56 60 57 54 48 42 39 40 38 34 31 29 27 25 28 27 27 29 28 28 29 29 33 36 39 38 39 45 45 45 44 44 42 40
69 72 78 76 81 81 77 69 62 61 61 63 62 57 50 45 45 44 39 34 30 34 34 31 33 33 31 30 30 30 31 32 33 38 34 34 36 41 45 38 41 41 44
66 76 76 74 76 79 82 80 71 67 65 65 68 67 60 56 53 52 47 42 37 32 36 31 29 30 31 33 34 34 34 33 30 32 35 36 35 32 36 37 38 39 40
56 64 66 65 65 66 69 76 80 77 72 70 71 74 74 70 65 60 55 51 47 41 40 38 34 31 30 28 29 31 34 39 43 40 38 40 47 39 32 35 40 39 38
49 50 51 53 57 60 64 68 71 75 76 77 76 74 78 80 77 70 63 60 57 54 51 47 46 44 39 36 32 33 36 38 43 45 51 51 49 42 41 44 43 44 47
46 49 51 53 55 52 57 61 67 67 69 73 76 79 78 81 84 82 76 71 69 65 60 55 53 51 49 45 44 45 46 45 47 47 51 49 45 41 40 43 50 52 55
31 38 45 47 48 53 59 61 59 65 67 70 72 74 79 79 80 84 82 83 84 82 76 71 68 64 58 52 52 56 56 55 51 50 50 49 45 43 42 47 50 38 44
4 12 25 43 46 52 53 52 57 60 66 67 73 76 76 79 78 77 80 85 90 89 88 86 82 79 73 65 61 62 66 62 56 54 53 52 52 50 49 52 52 52 41
17 12 16 14 27 42 50 52 54 53 55 61 69 74 76 78 79 80 80 80 82 85 90 89 92 89 80 76 70 69 72 61 60 62 61 60 61 59 56 57 52 51 50
26 20 19 22 21 19 24 45 50 51 54 55 59 65 72 76 76 75 77 82 83 84 86 80 85 84 82 74 71 74 68 61 62 66 62 64 61 60 58 55 51 52 52
30 23 26 32 29 25 22 24 30 51 51 56 60 62 63 68 69 66 65 67 69 74 73 76 78 78 73 71 70 69 65 66 71 73 69 69 63 60 62 59 58 55 54
38 33 23 29 28 31 30 33 30 38 51 58 62 68 67 67 65 64 62 59 61 64 64 61 63 66 69 69 69 70 71 73 75 76 69 64 63 63 66 63 59 54 55
47 39 38 29 27 33 42 43 46 37 39 58 70 72 70 61 74 68 63 62 62 64 62 63 66 69 71 71 73 74 71 74 77 77 75 70 68 67 68 64 64 62 61
56 52 45 42 42 41 41 54 48 50 47 51 57 81 76 67 63 65 59 54 55 50 51 64 73 76 76 74 72 72 72 74 74 67 68 65 65 62 63 60 59 60 56
57 59 56 51 53 42 35 51 56 44 53 55 56 62 73 71 60 56 54 46 48 43 50 62 70 71 72 71 70 67 68 66 63 63 59 59 60 64 62 61 58 64 68
64 63 61 59 56 54 54 48 66 66 54 57 61 50 68 78 61 59 52 53 53 53 53 59 63 61 62 62 61 60 59 58 55 54 54 53 51 55 59 62 62 65 65
61 63 60 60 58 61 58 53 60 55 55 52 69 69 54 56 52 63 62 68 67 67 63 63 61 58 52 55 56 54 50 51 53 54 56 58 58 57 60 59 61 59 56
52 59 61 58 59 59 61 63 57 55 56 60 64 56 49 45 57 58 61 68 71 69 64 65 65 63 62 61 55 54 52 49 52 56 58 58 59 61 66 65 60 56 57
45 49 51 51 52 54 61 68 61 54 64 66 63 61 51 48 56 54 54 55 60 74 80 75 70 63 59 57 60 62 59 53 56 56 57 60 61 61 64 67 61 57 58
51 54 52 51 49 51 54 59 65 60 63 62 60 54 47 42 47 51 56 54 50 51 52 56 54 51 55 52 42 39 50 51 50 48 50 55 54 52 48 49 48 49 48
52 56 51 48 49 48 48 51 54 58 56 57 57 53 46 33 32 35 42 46 42 41 38 35 41 52 60 48 40 36 40 35 45 45 46 49 50 40 39 42 45 48 52
42 41 42 44 45 44 42 43 45 54 49 52 49 49 42 38 31 29 33 36 36 34 36 39 42 52 44 42 36 43 47 47 41 33 38 39 43 40 40 43 42 40 40
29 31 33 37 40 40 40 39 39 42 45 44 40 38 33 32 32 31 29 28 31 32 34 38 37 33 31 29 29 30 35 40 40 37 30 28 25 26 30 29 30 34 31
16 17 21 28 32 33 32 27 27 30 28 30 31 32 29 28 25 25 25 27 30 31 32 30 28 27 26 27 28 26 22 20 21 18 19 18 16 20 22 22 22 22 23
Wind_Direction_500mb
238 238 236 238 235 237 241 239 235 237 231 227 224 230 237 237 231 231 232 236 239 245 243 243 244 248 253 260 267 275 282 289 293 299 309 312 314 314 316 320 325 329 328
237 242 241 240 242 237 240 239 238 236 235 231 231 228 234 235 229 228 231 238 251 258 256 251 248 247 251 257 264 269 272 275 282 291 296 304 309 311 313 317 324 324 322
239 239 243 244 242 242 239 242 239 237 234 234 231 234 232 229 226 226 233 242 248 255 263 258 257 252 248 255 262 271 270 272 278 285 293 299 304 312 315 318 320 321 323
242 242 243 244 247 244 243 241 244 240 238 235 234 237 236 232 230 228 231 235 249 254 252 259 255 251 249 254 260 270 272 271 274 283 289 295 299 306 314 320 318 320 320
249 249 248 251 251 248 244 243 242 245 243 240 239 237 239 239 235 232 234 241 247 254 245 249 253 253 254 254 258 264 268 271 269 275 281 288 292 298 305 310 313 317 326
251 251 250 249 250 251 250 246 245 245 246 246 242 241 240 241 241 238 239 241 243 248 250 249 248 254 257 258 260 264 269 271 272 271 276 280 289 299 302 306 309 313 319
246 249 249 246 245 247 248 246 245 245 246 247 248 245 244 242 242 243 240 243 246 249 249 249 252 256 256 258 264 268 269 270 272 275 277 279 286 293 299 303 304 304 308
233 240 241 243 245 247 247 247 247 245 244 246 248 249 247 247 245 244 245 246 249 249 249 250 252 254 256 259 267 272 273 273 271 270 272 278 283 288 289 295 296 301 307
250 247 247 242 244 246 247 247 248 245 243 244 245 247 247 247 247 246 246 246 250 253 253 252 254 255 255 257 262 269 272 273 276 273 272 274 275 276 280 283 286 293 298
289 241 260 261 257 249 249 250 251 248 245 245 245 245 247 247 246 246 247 246 249 253 257 258 258 256 257 257 260 265 268 269 274 273 275 269 268 269 270 271 279 285 288
21 9 4 332 272 261 259 259 256 253 247 245 244 244 245 244 244 244 245 245 245 250 254 255 259 260 257 259 261 263 266 271 271 272 269 267 268 269 269 272 276 279 280
301 319 329 339 350 313 284 263 261 258 252 251 245 243 246 246 243 243 243 242 243 245 250 253 257 259 261 258 256 257 260 264 262 263 263 263 264 268 271 275 275 275 275
287 288 303 310 303 317 335 322 294 262 259 255 253 247 244 244 244 241 242 242 238 241 247 252 253 256 257 257 254 250 252 252 257 260 260 262 263 268 271 274 276 275 271
290 287 281 289 308 312 321 319 321 318 261 254 257 255 250 243 243 243 239 238 239 238 243 246 249 251 253 254 253 251 248 249 251 256 259 261 263 264 271 275 275 274 273
293 292 286 279 281 289 295 310 310 315 302 264 254 256 251 247 245 243 244 241 245 244 243 242 244 245 246 249 249 249 251 250 251 254 257 260 262 264 269 273 274 272 266
288 296 293 286 281 277 284 279 297 298 294 296 275 252 253 260 254 253 250 251 246 241 239 239 243 244 246 248 250 254 257 256 257 257 257 258 260 264 268 269 269 267 263
283 287 292 290 283 282 282 283 296 285 284 293 294 273 254 247 246 247 246 243 247 237 229 232 235 243 248 250 253 255 256 259 261 258 254 255 259 264 265 263 263 272 272
279 284 287 289 290 283 279 288 280 298 301 298 292 285 255 253 253 250 244 246 241 234 235 235 242 242 246 253 256 256 256 257 259 263 261 257 255 258 262 265 268 271 273
276 280 282 284 283 287 282 283 277 284 286 286 290 281 253 244 253 250 241 245 247 244 239 244 244 247 248 254 258 261 257 255 258 258 261 262 262 263 264 266 268 270 270
274 276 279 281 280 279 282 278 277 278 282 278 276 277 273 241 249 254 249 239 239 243 246 245 246 248 245 246 249 253 256 256 261 262 262 262 264 263 261 262 261 264 266
283 276 277 281 278 276 276 279 277 279 279 282 282 279 278 257 246 250 251 246 243 244 244 250 252 253 251 248 246 245 251 252 260 263 261 266 264 263 264 264 262 261 259
286 281 275 275 275 270 266 266 273 274 274 275 276 275 276 267 242 237 251 250 246 251 245 244 246 249 266 255 257 268 262 264 266 255 257 257 256 256 254 251 251 249 249
276 278 277 267 265 266 263 260 263 269 271 273 269 270 270 264 252 241 240 249 256 261 263 250 235 235 222 206 210 224 250 271 274 270 273 259 253 245 248 254 259 263 268
276 273 271 267 262 258 254 255 257 263 266 265 262 260 255 253 246 242 235 237 240 237 244 230 210 198 212 228 242 241 241 246 244 246 249 246 262 265 269 271 270 269 269
284 271 258 255 253 251 255 252 252 254 252 256 251 246 241 236 233 226 220 224 224 219 208 203 202 216 226 231 229 231 234 235 241 240 226 223 229 232 233 239 252 259 258
308 276 252 238 234 235 242 247 239 232 227 229 221 217 209 206 203 200 194 191 184 176 173 175 172 172 171 178 174 176 184 192 188 197 209 226 239 257 261 262 263 260 267
Wind_Speed_850mb
81 79 78 73 67 57 52 52 58 53 48 44 39 33 30 26 24 23 19 21 24 22 26 29 31 30 29 28 27 26 26 25 23 24 33 32 32 33 34 37 40 45 41
75 73 80 80 75 69 57 53 54 60 53 51 45 40 36 35 31 29 25 20 18 20 22 27 28 33 33 32 32 34 33 34 33 36 33 36 39 37 39 42 40 41 44
76 80 75 80 83 78 69 59 57 56 60 57 54 48 42 39 40 38 34 31 29 27 25 28 27 27 29 28 28 29 29 33 36 39 38 39 45 45 45 44 44 42 40
69 72 78 76 81 81 77 69 62 61 61 63 62 57 50 45 45 44 39 34 30 34 34 31 33 33 31 30 30 30 31 32 33 38 34 34 36 41 45 38 41 41 44
66 76 76 74 76 79 82 80 71 67 65 65 68 67 60 56 53 52 47 42 37 32 36 31 29 30 31 33 34 34 34 33 30 32 35 36 35 32 36 37 38 39 40
56 64 66 65 65 66 69 76 80 77 72 70 71 74 74 70 65 60 55 51 47 41 40 38 34 31 30 28 29 31 34 39 43 40 38 40 47 39 32 35 40 39 38
49 50 51 53 57 60 64 68 71 75 76 77 76 74 78 80 77 70 63 60 57 54 51 47 46 44 39 36 32 33 36 38 43 45 51 51 49 42 41 44 43 44 47
46 49 51 53 55 52 57 61 67 67 69 73 76 79 78 81 84 82 76 71 69 65 60 55 53 51 49 45 44 45 46 45 47 47 51 49 45 41 40 43 50 52 55
31 38 45 47 48 53 59 61 59 65 67 70 72 74 79 79 80 84 82 83 84 82 76 71 68 64 58 52 52 56 56 55 51 50 50 49 45 43 42 47 50 38 44
4 12 25 43 46 52 53 52 57 60 66 67 73 76 76 79 78 77 80 85 90 89 88 86 82 79 73 65 61 62 66 62 56 54 53 52 52 50 49 52 52 52 41
17 12 16 14 27 42 50 52 54 53 55 61 69 74 76 78 79 80 80 80 82 85 90 89 92 89 80 76 70 69 72 61 60 62 61 60 61 59 56 57 52 51 50
26 20 19 22 21 19 24 45 50 51 54 55 59 65 72 76 76 75 77 82 83 84 86 80 85 84 82 74 71 74 68 61 62 66 62 64 61 60 58 55 51 52 52
30 23 26 32 29 25 22 24 30 51 51 56 60 62 63 68 69 66 65 67 69 74 73 76 78 78 73 71 70 69 65 66 71 73 69 69 63 60 62 59 58 55 54
38 33 23 29 28 31 30 33 30 38 51 58 62 68 67 67 65 64 62 59 61 64 64 61 63 66 69 69 69 70 71 73 75 76 69 64 63 63 66 63 59 54 55
47 39 38 29 27 33 42 43 46 37 39 58 70 72 70 61 74 68 63 62 62 64 62 63 66 69 71 71 73 74 71 74 77 77 75 70 68 67 68 64 64 62 61
56 52 45 42 42 41 41 54 48 50 47 51 57 81 76 67 63 65 59 54 55 50 51 64 73 76 76 74 72 72 72 74 74 67 68 65 65 62 63 60 59 60 56
57 59 56 51 53 42 35 51 56 44 53 55 56 62 73 71 60 56 54 46 48 43 50 62 70 71 72 71 70 67 68 66 63 63 59 59 60 64 62 61 58 64 68
64 63 61 59 56 54 54 48 66 66 54 57 61 50 68 78 61 59 52 53 53 53 53 59 63 61 62 62 61 60 59 58 55 54 54 53 51 55 59 62 62 65 65
61 63 60 60 58 61 58 53 60 55 55 52 69 69 54 56 52 63 62 68 67 67 63 63 61 58 52 55 56 54 50 51 53 54 56 58 58 57 60 59 61 59 56
52 59 61 58 59 59 61 63 57 55 56 60 64 56 49 45 57 58 61 68 71 69 64 65 65 63 62 61 55 54 52 49 52 56 58 58 59 61 66 65 60 56 57
45 49 51 51 52 54 61 68 61 54 64 66 63 61 51 48 56 54 54 55 60 74 80 75 70 63 59 57 60 62 59 53 56 56 57 60 61 61 64 67 61 57 58
51 54 52 51 49 51 54 59 65 60 63 62 60 54 47 42 47 51 56 54 50 51 52 56 54 51 55 52 42 39 50 51 50 48 50 55 54 52 48 49 48 49 48
52 56 51 48 49 48 48 51 54 58 56 57 57 53 46 33 32 35 42 46 42 41 38 35 41 52 60 48 40 36 40 35 45 45 46 49 50 40 39 42 45 48 52
42 41 42 44 45 44 42 43 45 54 49 52 49 49 42 38 31 29 33 36 36 34 36 39 42 52 44 42 36 43 47 47 41 33 38 39 43 40 40 43 42 40 40
29 31 33 37 40 40 40 39 39 42 45 44 40 38 33 32 32 31 29 28 31 32 34 38 37 33 31 29 29 30 35 40 40 37 30 28 25 26 30 29 30 34 31
16 17 21 28 32 33 32 27 27 30 28 30 31 32 29 28 25 25 25 27 30 31 32 30 28 27 26 27 28 26 22 20 21 18 19 18 16 20 22 22 22 22 23
Wind_Direction_850mb
238 238 236 238 235 237 241 239 235 237 231 227 224 230 237 237 231 231 232 236 239 245 243 243 244 248 253 260 267 275 282 289 293 299 309 312 314 314 316 320 325 329 328
237 242 241 240 242 237 240 239 238 236 235 231 231 228 234 235 229 228 231 238 251 258 256 251 248 247 251 257 264 269 272 275 282 291 296 304 309 311 313 317 324 324 322
239 239 243 244 242 242 239 242 239 237 234 234 231 234 232 229 226 226 233 242 248 255 263 258 257 252 248 255 262 271 270 272 278 285 293 299 304 312 315 318 320 321 323
242 242 243 244 247 244 243 241 244 240 238 235 234 237 236 232 230 228 231 235 249 254 252 259 255 251 249 254 260 270 272 271 274 283 289 295 299 306 314 320 318 320 320
249 249 248 251 251 248 244 243 242 245 243 240 239 237 239 239 235 232 234 241 247 254 245 249 253 253 254 254 258 264 268 271 269 275 281 288 292 298 305 310 313 317 326
251 251 250 249 250 251 250 246 245 245 246 246 242 241 240 241 241 238 239 241 243 248 250 249 248 254 257 258 260 264 269 271 272 271 276 280 289 299 302 306 309 313 319
246 249 249 246 245 247 248 246 245 245 246 247 248 245 244 242 242 243 240 243 246 249 249 249 252 256 256 258 264 268 269 270 272 275 277 279 286 293 299 303 304 304 308
233 240 241 243 245 247 247 247 247 245 244 246 248 249 247 247 245 244 245 246 249 249 249 250 252 254 256 259 267 272 273 273 271 270 272 278 283 288 289 295 296 301 307
250 247 247 242 244 246 247 247 248 245 243 244 245 247 247 247 247 246 246 246 250 253 253 252 254 255 255 257 262 269 272 273 276 273 272 274 275 276 280 283 286 293 298
289 241 260 261 257 249 249 250 251 248 245 245 245 245 247 247 246 246 247 246 249 253 257 258 258 256 257 257 260 265 268 269 274 273 275 269 268 269 270 271 279 285 288
21 9 4 332 272 261 259 259 256 253 247 245 244 244 245 244 244 244 245 245 245 250 254 255 259 260 257 259 261 263 266 271 271 272 269 267 268 269 269 272 276 279 280
301 319 329 339 350 313 284 263 261 258 252 251 245 243 246 246 243 243 243 242 243 245 250 253 257 259 261 258 256 257 260 264 262 263 263 263 264 268 271 275 275 275 275
287 288 303 310 303 317 335 322 294 262 259 255 253 247 244 244 244 241 242 242 238 241 247 252 253 256 257 257 254 250 252 252 257 260 260 262 263 268 271 274 276 275 271
290 287 281 289 308 312 321 319 321 318 261 254 257 255 250 243 243 243 239 238 239 238 243 246 249 251 253 254 253 251 248 249 251 256 259 261 263 264 271 275 275 274 273
293 292 286 279 281 289 295 310 310 315 302 264 254 256 251 247 245 243 244 241 245 244 243 242 244 245 246 249 249 249 251 250 251 254 257 260 262 264 269 273 274 272 266
288 296 293 286 281 277 284 279 297 298 294 296 275 252 253 260 254 253 250 251 246 241 239 239 243 244 246 248 250 254 257 256 257 257 257 258 260 264 268 269 269 267 263
283 287 292 290 283 282 282 283 296 285 284 293 294 273 254 247 246 247 246 243 247 237 229 232 235 243 248 250 253 255 256 259 261 258 254 255 259 264 265 263 263 272 272
279 284 287 289 290 283 279 288 280 298 301 298 292 285 255 253 253 250 244 246 241 234 235 235 242 242 246 253 256 256 256 257 259 263 261 257 255 258 262 265 268 271 273
276 280 282 284 283 287 282 283 277 284 286 286 290 281 253 244 253 250 241 245 247 244 239 244 244 247 248 254 258 261 257 255 258 258 261 262 262 263 264 266 268 270 270
274 276 279 281 280 279 282 278 277 278 282 278 276 277 273 241 249 254 249 239 239 243 246 245 246 248 245 246 249 253 256 256 261 262 262 262 264 263 261 262 261 264 266
283 276 277 281 278 276 276 279 277 279 279 282 282 279 278 257 246 250 251 246 243 244 244 250 252 253 251 248 246 245 251 252 260 263 261 266 264 263 264 264 262 261 259
286 281 275 275 275 270 266 266 273 274 274 275 276 275 276 267 242 237 251 250 246 251 245 244 246 249 266 255 257 268 262 264 266 255 257 257 256 256 254 251 251 249 249
276 278 277 267 265 266 263 260 263 269 271 273 269 270 270 264 252 241 240 249 256 261 263 250 235 235 222 206 210 224 250 271 274 270 273 259 253 245 248 254 259 263 268
276 273 271 267 262 258 254 255 257 263 266 265 262 260 255 253 246 242 235 237 240 237 244 230 210 198 212 228 242 241 241 246 244 246 249 246 262 265 269 271 270 269 269
284 271 258 255 253 251 255 252 252 254 252 256 251 246 241 236 233 226 220 224 224 219 208 203 202 216 226 231 229 231 234 235 241 240 226 223 229 232 233 239 252 259 258
308 276 252 238 234 235 242 247 239 232 227 229 221 217 209 206 203 200 194 191 184 176 173 175 172 172 171 178 174 176 184 192 188 197 209 226 239 257 261 262 263 260 267